Total_Precipitation_Accumulation
0.00 0.01 0.03 0.03 0.03 0.04 0.04 0.06 0.10 0.17 0.17 0.24 0.37 0.50 0.72 0.88 1.10 1.26 1.29 1.25 1.33 1.55 1.86 2.16 2.53 2.88 3.09 3.25 3.36 3.67 3.88 3.59 3.10 2.67 2.15 1.93 1.83 1.65 1.47 1.33 1.24 1.25 1.18 1.30
0.01 0.02 0.02 0.02 0.02 0.03 0.04 0.07 0.12 0.16 0.16 0.21 0.36 0.65 0.82 0.90 0.93 1.00 1.10 1.06 1.09 1.29 1.39 1.48 1.70 2.03 2.12 2.33 2.65 3.03 3.27 3.11 2.57 2.32 2.09 1.94 1.84 1.71 1.66 1.51 1.43 1.26 1.22 1.26
0.01 0.02 0.02 0.02 0.02 0.03 0.05 0.06 0.08 0.12 0.12 0.22 0.38 0.90 1.01 0.89 0.80 0.71 0.82 0.87 0.84 0.92 1.02 1.02 1.10 1.27 1.57 2.05 2.20 2.26 2.52 2.71 2.45 2.31 2.22 2.10 1.99 1.79 1.83 1.72 1.55 1.24 1.14 1.17
0.01 0.01 0.01 0.01 0.02 0.02 0.05 0.04 0.03 0.04 0.08 0.33 0.45 0.91 1.03 0.91 0.89 0.71 0.67 0.66 0.56 0.54 0.69 0.84 0.85 0.91 1.10 1.43 1.71 1.96 2.21 2.39 2.32 2.19 1.98 1.82 1.64 1.53 1.51 1.53 1.54 1.42 1.30 1.14
0.01 0.01 0.01 0.02 0.02 0.02 0.02 0.01 0.02 0.04 0.11 0.30 0.43 0.77 0.99 0.83 0.97 0.73 0.46 0.33 0.28 0.29 0.39 0.57 0.67 0.76 0.79 0.98 1.37 1.79 2.13 2.36 2.26 1.98 1.80 1.79 1.68 1.63 1.56 1.47 1.62 1.51 1.45 1.25
0.01 0.01 0.01 0.01 0.01 0.01 0.01 0.02 0.08 0.18 0.31 0.64 0.63 0.64 0.93 0.71 0.54 0.39 0.28 0.20 0.21 0.22 0.27 0.36 0.43 0.53 0.67 0.79 1.02 1.30 1.63 1.91 1.95 1.80 1.71 1.74 1.76 1.73 1.60 1.40 1.37 1.27 1.28 1.25
0.06 0.05 0.03 0.02 0.01 0.02 0.02 0.03 0.17 0.39 0.66 0.85 0.51 0.66 1.01 0.59 0.40 0.26 0.21 0.19 0.18 0.17 0.22 0.32 0.39 0.41 0.51 0.58 0.67 0.83 1.14 1.37 1.54 1.60 1.62 1.61 1.73 1.73 1.55 1.38 1.31 1.29 1.12 1.08
0.09 0.15 0.06 0.02 0.01 0.02 0.02 0.02 0.07 0.14 0.27 0.43 0.50 1.12 0.97 0.42 0.27 0.23 0.19 0.19 0.18 0.17 0.18 0.28 0.38 0.39 0.41 0.43 0.54 0.68 0.90 1.10 1.23 1.32 1.43 1.48 1.48 1.39 1.37 1.45 1.35 1.28 1.22 1.16
0.03 0.04 0.03 0.02 0.01 0.02 0.02 0.02 0.03 0.04 0.07 0.26 0.60 0.79 0.52 0.25 0.21 0.24 0.21 0.20 0.19 0.23 0.28 0.33 0.44 0.46 0.35 0.35 0.44 0.52 0.69 0.83 0.93 1.07 1.22 1.26 1.30 1.21 1.21 1.26 1.25 1.20 1.27 1.28
0.02 0.01 0.02 0.02 0.02 0.03 0.03 0.02 0.02 0.02 0.05 0.19 0.45 0.70 0.72 0.43 0.33 0.28 0.24 0.23 0.20 0.26 0.40 0.43 0.39 0.41 0.35 0.33 0.40 0.47 0.58 0.69 0.80 0.93 0.98 0.98 1.17 1.17 1.26 1.24 1.16 1.09 1.08 1.10
0.02 0.01 0.01 0.02 0.03 0.04 0.04 0.03 0.03 0.03 0.04 0.10 0.30 0.48 0.51 0.45 0.40 0.28 0.22 0.25 0.31 0.30 0.42 0.43 0.39 0.41 0.37 0.35 0.38 0.41 0.52 0.62 0.72 0.83 0.88 0.94 0.99 1.05 1.11 1.15 1.15 1.12 1.08 1.07
0.02 0.01 0.01 0.03 0.04 0.03 0.05 0.06 0.06 0.05 0.05 0.06 0.12 0.23 0.25 0.31 0.37 0.30 0.29 0.36 0.38 0.27 0.27 0.34 0.39 0.45 0.34 0.34 0.38 0.39 0.44 0.50 0.58 0.75 0.88 0.91 1.01 1.05 1.05 1.09 1.26 1.26 1.22 1.20
0.02 0.01 0.02 0.06 0.12 0.10 0.06 0.06 0.07 0.07 0.06 0.05 0.10 0.21 0.21 0.23 0.33 0.31 0.36 0.41 0.39 0.32 0.27 0.38 0.45 0.41 0.33 0.32 0.36 0.40 0.46 0.51 0.54 0.64 0.76 0.85 0.94 1.03 1.12 1.25 1.39 1.50 1.46 1.45
0.02 0.01 0.01 0.06 0.14 0.20 0.15 0.08 0.07 0.07 0.05 0.05 0.08 0.15 0.21 0.29 0.33 0.31 0.35 0.41 0.42 0.39 0.29 0.34 0.48 0.47 0.38 0.35 0.39 0.41 0.49 0.56 0.65 0.78 0.86 0.91 1.07 1.22 1.32 1.37 1.50 1.57 1.61 1.66
0.02 0.01 0.01 0.03 0.06 0.11 0.11 0.08 0.07 0.06 0.05 0.05 0.07 0.11 0.21 0.32 0.36 0.34 0.35 0.40 0.41 0.35 0.35 0.46 0.55 0.59 0.56 0.53 0.51 0.52 0.62 0.72 0.88 1.06 1.09 1.11 1.20 1.34 1.52 1.72 1.80 1.84 1.87 1.86
0.04 0.04 0.04 0.04 0.06 0.08 0.07 0.06 0.06 0.06 0.05 0.05 0.08 0.13 0.19 0.29 0.31 0.27 0.28 0.31 0.36 0.40 0.41 0.48 0.63 0.70 0.75 0.77 0.75 0.78 0.87 1.02 1.23 1.48 1.57 1.66 1.74 1.84 1.94 2.01 2.03 2.11 2.14 2.10
0.14 0.13 0.12 0.09 0.09 0.10 0.08 0.08 0.07 0.07 0.07 0.08 0.12 0.18 0.24 0.31 0.32 0.38 0.39 0.38 0.48 0.53 0.58 0.61 0.74 0.80 0.88 0.87 0.86 0.95 1.05 1.25 1.45 1.58 1.64 1.76 1.87 1.97 2.05 2.09 2.14 2.10 2.08 2.02
0.33 0.28 0.21 0.17 0.19 0.19 0.12 0.13 0.14 0.15 0.18 0.20 0.19 0.23 0.30 0.39 0.41 0.45 0.47 0.44 0.47 0.58 0.71 0.73 0.79 0.82 0.84 0.92 1.01 1.10 1.14 1.21 1.46 1.61 1.67 1.67 1.71 1.78 1.92 2.03 2.03 1.94 1.89 1.84
0.41 0.46 0.40 0.29 0.25 0.26 0.25 0.24 0.24 0.28 0.35 0.31 0.34 0.40 0.43 0.44 0.46 0.48 0.52 0.66 0.64 0.60 0.65 0.71 0.81 0.84 0.86 0.90 0.97 0.97 1.04 1.16 1.30 1.38 1.46 1.48 1.57 1.67 1.75 1.81 1.85 1.86 1.81 1.63
0.32 0.35 0.40 0.41 0.41 0.39 0.39 0.43 0.34 0.36 0.62 0.62 0.58 0.55 0.54 0.57 0.68 0.63 0.51 0.53 0.56 0.57 0.59 0.67 0.79 0.83 0.87 0.91 0.92 0.96 1.05 1.19 1.35 1.48 1.56 1.63 1.69 1.76 1.73 1.77 1.80 1.75 1.65 1.56
0.45 0.46 0.44 0.44 0.48 0.51 0.47 0.42 0.42 0.69 0.92 0.90 0.93 0.89 0.76 0.77 0.75 0.66 0.53 0.50 0.51 0.56 0.60 0.65 0.77 0.90 0.92 0.95 1.02 1.11 1.19 1.27 1.37 1.44 1.52 1.57 1.61 1.67 1.71 1.78 1.73 1.71 1.68 1.62
0.62 0.63 0.61 0.63 0.80 0.93 0.71 0.62 0.80 0.95 0.73 0.76 0.89 1.06 1.07 0.97 0.79 0.65 0.53 0.48 0.47 0.46 0.51 0.65 0.76 0.86 0.96 1.06 1.19 1.25 1.24 1.27 1.37 1.49 1.55 1.55 1.59 1.60 1.61 1.65 1.63 1.61 1.58 1.51
0.71 0.79 0.88 0.93 1.07 1.00 0.84 0.84 0.80 0.89 1.00 1.01 1.09 1.22 1.24 1.09 0.85 0.70 0.61 0.56 0.50 0.48 0.51 0.58 0.68 0.83 0.92 1.06 1.20 1.29 1.34 1.43 1.46 1.55 1.66 1.70 1.67 1.65 1.71 1.80 1.83 1.73 1.65 1.57
0.74 0.64 0.83 1.11 1.25 1.07 0.90 0.91 0.91 0.98 1.14 1.17 1.11 1.09 1.09 1.01 0.87 0.82 0.78 0.71 0.73 0.70 0.67 0.70 0.78 0.84 0.91 1.00 1.11 1.22 1.33 1.43 1.56 1.62 1.66 1.72 1.73 1.73 1.76 1.82 1.79 1.72 1.63 1.53
0.78 0.81 0.97 1.31 1.49 1.40 1.24 1.14 1.07 1.09 1.06 1.14 1.05 1.06 1.02 0.97 0.90 0.89 0.93 0.97 0.94 0.86 0.84 0.85 0.90 0.93 0.96 1.02 1.11 1.26 1.36 1.44 1.53 1.63 1.67 1.66 1.65 1.69 1.71 1.68 1.63 1.53 1.44 1.38
0.86 1.01 1.27 1.61 1.62 1.71 1.62 1.34 1.17 1.21 1.17 1.13 1.06 1.10 1.12 1.05 0.96 0.95 1.03 1.05 1.01 0.94 0.90 0.89 0.92 0.93 0.95 1.02 1.13 1.21 1.37 1.53 1.62 1.60 1.51 1.46 1.38 1.38 1.40 1.37 1.37 1.41 1.26 1.25